Gulfport Biloxi International Airport
KGPT : now visible

Airfield :











YOU CAN JOIN US ON...

 
LOGIN :

Register | Disclaimer

   EN    FR    IT 

 









Legend :    VFR   Marginal VFR   IFR   Intensive IFR   Very Intensive IFR
Visi :
Ceiling :
>= 8 km
>= 3000ft
5 to 8 km
1000 to 3000 ft
1500m to 5 km
500 to 1000 ft
800 to 1500m
200 to 500 ft
< 800m
< 200 ft
Symbols :   Thunderstorms  Fog  Heavy snow  Heavy precipitations  Wind > 20 kt






- Airport Elevation : 28 ft
- IATA code : GPT


KGPT - Gulfport Biloxi International

CURRENT METAR :
  • 261753Z VRB06KT 10SM CLR 26/19 A3001 RMK AO2 SLP163 T02610189 10261 20167 58015

EXPIRED METARs :
  • 261653Z AUTO 04008KT 10SM CLR 25/19 A3004 RMK AO2 SLP172 T02500189
  • 261553Z AUTO 06005KT 10SM CLR 23/18 A3006 RMK AO2 SLP179 T02280178

TAF KGPT
Valid from the 26 at 18:00 until the 27 at 18:00 UTC


261733Z 2618/2718 06008KT P6SM FEW090
FM270300 05009KT P6SM BKN050
FM271600 07014KT P6SM OVC015
KZHU FIR / North America



MET'MAP, your aeronautical weather chart ! - Copyright ORBIFLY December 2007 - Disclaimer

ORBIFLY MET'MAP TEAM :

Programming & Development : Alexandra Zaïnal
Concept & original design : Baudouin d'Aumeries
Assistance for programming : Marc-Olivier Méhu
Technical & hardware support : Manuel Goepfert

Contact : metmap@orbifly.com




SOURCES & CREDITS :

   NOAA       Earth
Advisory